SCP
0 0 0 0 0 0 0 0 0 0 0 0 0 0 0 0 0 0 0 0 0 0 0 0 0 0 0 0 0 0 0 0 0 0 0 0 0 0 0 0 0 0 0 0
0 0 0 0 0 0 0 0 0 0 0 0 0 0 0 0 0 0 0 0 0 0 0 0 0 0 0 0 0 0 0 0 0 0 0 0 0 0 0 0 0 0 0 0
0 0 0 0 0 0 0 0 0 0 0 0 0 0 0 0 0 0 0 0 0 0 0 0 0 0 0 0 0 0 0 0 0 0 0 0 0 0 0 0 0 0 0 0
0 0 0 0 0 0 0 0 0 0 0 0 0 0 0 0 0 0 0 0 0 0 0 0 0 0 0 0 0 0 0 0 0 0 0 0 0 0 0 0 0 0 0 0
0 0 0 0 0 0 0 0 0 0 0 0 0 0 0 0 0 0 0 0 0 0 0 0 0 0 0 0 0 0 0 0 0 0 0 0 0 0 0 0 0 0 0 0
0 0 0 0 0 0 0 0 0 0 0 0 0 0 0 0 0 0 0 0 0 0 0 0 0 0 0 0 0 0 0 0 0 0 0 0 0 0 0 0 0 0 0 0
0 0 0 0 0 0 0 0 0 0 0 0 0 0 0 0 0 0 0 0 0 0 0 0 0 0 0 0 0 0 0 0 0 0 0 0 0 0 0 0 0 0 0 0
0 0 0 0 0 0 0 0 0 0 0 0 0 0 0 0 0 0 0 0 0 0 0 0 0 0 0 0 0 0 0 0 0 0 0 0 0 0 0 0 0 0 0 0
0 0 0 0 0 0 0 0 0 0 0 0 0 0 0 0 0 0 0 0 0 0 0 0 0 0 0 0 0 0 0 0 0 0 0 0 0 0 0 0 0 0 0 0
0 0 0 0 0 0 0 0 0 0 0 0 0 0 0 0 0 0 0 0 0 0 0 0 0 0 0 0 0 0 0 0 0 0 0 0 0 0 0 0 0 0 0 0
0 0 0 0 0 0 0 0 0 0 0 0 0 0 0 0 0 0 0 0 0 0 0 0 0 0 0 0 0 0 0 0 0 0 0 0 0 0 0 0 0 0 0 0
0 0 0 0 0 0 0 0 0 0 0 0 0 0 0 0 0 0 0 0 0 0 0 0 0 0 0 0 0 0 0 0 0 0 0 0 0 0 0 0 0 0 0 0
0 0 0 0 0 0 0 0 0 0 0 0 0 0 0 0 0 0 0 0 0 0 0 0 0 0 0 0 0 0 0 0 0 0 0 0 0 0 0 0 0 0 0 0
0 0 0 0 0 0 0 0 0 0 0 0 0 0 0 0 0 0 0 0 0 0 0 0 0 0 0 0 0 0 0 0 0 0 0 0 0 0 0 0 0 0 0 0
0 0 0 0 -0 -0 0 0 0 0 0 0 0 0 0 0 0 0 0 0 0 0 0 0 0 0 0 0 0 0 0 0 0 0 0 0 0 0 0 0 0 0 0 0
0 0 0 0 0 0 0 0 0 0 0 0 0 0 0 0 0 0 0 0 0 0 0 0 0 0 0 0 0 0 0 0 0 0 0 0 0 0 0 0 0 0 0 0
0 0 0 0 0 0 0 0 0 0 0 0 0 0 0 0 0 0 0 0 0 0 0 0 0 0 0 0 0 0 0 0 0 0 0 0 0 0 0 0 0 0 0 0
0 0 0 0 0 0 0 0 0 0 0 0 0 0 0 0 0 0 0 0 0 0 0 0 0 0 0 0 0 0 0 0 0 0 0 0 0 0 0 0 0 0 0 0
0 0 0 0 0 0 0 0 0 0 0 0 0 0 0 0 0 0 0 0 0 0 0 0 0 0 0 0 0 0 0 0 0 0 0 0 0 0 0 0 0 0 0 0
0 0 0 0 0 0 0 0 0 0 0 0 0 0 0 0 0 0 0 0 0 0 0 0 0 0 0 0 0 0 0 0 0 0 0 0 0 0 0 0 0 0 0 0
0 0 0 0 0 0 0 0 0 0 0 0 0 0 0 0 0 0 0 0 0 0 0 0 0 0 0 0 0 0 0 0 0 0 0 0 0 0 0 0 0 0 0 0
0 0 0 0 0 0 0 0 0 0 0 0 0 0 0 0 0 0 0 0 0 0 0 0 0 0 0 0 0 0 0 0 0 0 0 0 0 0 0 0 0 0 0 0
0 0 0 0 0 0 0 0 0 0 0 0 0 0 0 0 0 0 0 0 0 0 0 0 0 0 0 0 0 0 0 0 0 0 0 0 0 0 0 0 0 0 0 0
0 0 0 0 0 0 0 0 0 0 0 0 0 0 0 0 0 0 0 0 0 0 0 0 0 0 0 0 0 0 0 0 0 0 0 0 0 0 0 0 0 0 0 0
0 0 0 0 0 0 0 0 0 0 0 0 0 0 0 0 0 0 0 0 0 0 0 0 0 0 0 0 0 0 0 0 0 0 0 0 0 0 0 0 0 0 0 0
0 0 0 0 0 0 0 0 0 0 0 0 0 0 0 0 0 0 0 0 0 0 0 0 0 0 0 0 0 0 0 0 0 0 0 0 0 0 0 0 0 0 0 0
0 0 0 0 0 0 0 0 0 0 0 0 0 0 0 0 0 0 0 0 0 0 0 0 0 0 0 0 0 0 0 0 0 0 0 0 0 0 0 0 0 0 0 0
Wind_Speed_500mb
2 5 7 6 13 21 7 6 6 6 6 10 11 16 28 43 48 47 48 60 65 61 55 51 42 34 38 42 42 39 36 33 31 29 26 23 24 24 23 21 18 19 20 22
2 5 5 8 13 18 17 2 5 1 7 9 19 37 38 45 51 52 54 64 58 55 55 50 42 44 45 44 43 40 39 36 34 32 29 28 29 27 24 21 20 22 23 24
5 5 8 7 12 16 5 3 6 6 2 8 4 10 34 43 49 51 55 58 59 61 55 50 51 49 48 47 45 42 41 38 37 34 32 33 31 30 27 24 23 25 27 29
3 2 2 7 5 8 10 10 7 9 6 8 8 7 14 33 46 43 49 53 55 53 52 51 50 49 51 48 43 41 41 39 40 37 37 35 33 31 29 28 28 30 32 32
6 4 8 7 7 10 9 7 9 11 8 8 12 8 8 24 34 38 37 40 45 50 48 51 52 51 54 48 44 45 43 42 41 41 39 37 35 34 33 33 34 35 35 35
6 8 8 3 1 8 3 3 15 12 17 16 18 4 5 23 25 32 36 35 40 42 44 50 53 52 50 48 46 45 43 42 42 41 41 39 37 38 38 39 40 40 38 36
5 3 6 5 4 6 8 4 12 6 24 30 7 2 16 17 20 20 20 22 25 28 33 36 38 40 44 45 46 40 42 43 42 41 40 40 43 45 44 46 45 43 41 39
1 3 8 9 5 2 3 4 2 18 22 21 19 25 22 20 18 14 11 11 13 18 24 27 31 35 39 43 40 41 43 41 40 41 43 47 49 50 50 50 48 45 44 42
5 6 2 8 9 5 4 4 6 15 21 29 30 23 17 16 14 11 7 4 5 10 15 20 25 29 32 33 35 38 38 39 42 45 49 51 53 53 54 54 52 48 47 46
4 6 4 10 16 11 13 22 19 25 24 21 29 23 24 21 18 13 10 6 3 4 6 9 12 17 21 27 33 39 39 41 45 50 52 53 54 56 57 56 54 53 51 49
5 5 9 14 20 26 35 35 35 34 34 33 29 27 21 17 12 7 4 6 9 13 15 16 19 23 28 32 38 42 45 49 52 55 57 58 59 59 60 59 57 55 53 52
6 5 6 10 22 28 35 38 36 34 32 26 20 17 12 9 8 9 11 14 16 19 22 24 29 33 36 41 48 52 56 58 59 61 62 64 64 62 62 61 59 59 56 54
7 10 19 25 24 24 24 25 24 21 19 15 13 11 9 7 9 13 19 24 30 33 35 37 39 41 41 48 53 58 62 62 63 65 66 67 68 67 66 61 61 60 56 54
18 18 16 19 15 19 17 15 12 12 13 12 11 11 12 15 19 23 26 28 30 33 34 36 39 39 41 46 52 56 59 62 65 68 70 73 74 72 68 66 63 59 54 51
10 16 18 17 20 16 13 11 8 8 12 13 15 16 18 18 18 19 23 27 30 32 33 37 40 37 43 48 53 56 61 65 68 72 74 75 75 73 70 65 63 59 55 53
5 9 17 18 19 16 11 6 10 17 16 14 14 14 15 19 22 25 31 36 40 40 41 46 48 48 52 56 59 62 64 67 69 71 72 72 73 71 68 65 62 59 58 52
7 9 11 11 8 4 5 12 10 6 8 11 13 16 21 26 30 33 38 43 47 51 51 55 59 58 59 60 61 62 63 64 65 67 67 66 65 67 64 61 59 57 54 50
15 18 17 11 5 4 4 5 7 8 11 15 21 28 34 39 45 46 49 51 51 52 50 50 50 50 52 54 56 57 59 60 60 60 59 61 59 58 59 59 57 55 52 47
23 23 19 15 10 8 7 5 7 15 22 29 34 37 41 43 49 51 51 46 41 42 43 44 45 47 50 52 54 56 58 59 59 58 57 57 56 55 55 55 54 52 50 47
18 17 18 15 9 6 11 16 21 27 33 39 43 47 48 44 44 38 33 35 35 35 36 41 45 49 53 55 57 59 58 58 58 59 57 56 55 52 51 51 51 51 49 46
24 17 12 12 15 18 23 28 33 35 38 45 50 50 46 33 28 29 28 30 30 34 39 43 47 49 52 54 56 59 59 59 60 59 57 55 53 52 51 50 50 48 46 44
16 15 16 19 22 28 33 39 45 49 48 46 42 40 33 28 24 23 25 30 33 40 44 48 53 56 58 60 61 61 60 59 58 58 59 56 55 53 51 48 47 45 44 42
18 23 29 34 37 40 42 44 45 46 42 38 33 30 29 29 30 35 37 38 47 52 55 57 60 63 65 66 66 66 65 63 61 60 58 56 53 51 49 46 44 43 42 39
27 32 36 39 42 42 41 37 36 37 34 31 29 30 32 35 32 34 44 52 58 62 64 65 67 68 70 69 68 67 66 65 63 61 57 55 52 49 47 44 42 41 39 32
31 34 36 36 36 36 36 36 33 32 28 25 27 31 36 42 47 53 59 63 66 69 70 68 69 71 71 72 69 67 65 63 61 59 55 50 47 44 42 40 39 37 32 29
31 33 35 35 35 37 38 39 36 36 39 39 34 36 41 46 52 57 62 65 67 69 71 72 72 72 71 71 69 66 64 61 57 54 50 47 45 43 42 42 41 40 33 31
29 27 24 24 26 28 30 34 37 39 41 46 51 52 57 60 63 66 70 74 77 78 78 75 73 72 71 68 66 63 60 58 56 53 51 49 47 45 43 41 39 35 34 32
Wind_Direction_500mb
129 49 19 299 199 192 246 204 112 15 84 162 177 148 140 144 150 156 166 172 173 174 183 188 194 195 181 181 190 207 223 235 235 237 240 248 258 263 268 276 287 297 303 309
79 307 41 323 311 192 201 219 95 307 103 21 155 146 148 165 167 171 177 182 187 192 191 193 199 192 194 202 214 226 234 234 239 240 242 249 258 264 268 274 288 292 297 299
136 313 14 295 231 202 157 241 119 148 79 115 67 164 171 178 179 177 184 191 194 194 200 206 203 203 211 220 230 232 235 237 240 242 246 251 259 264 269 276 283 286 289 287
129 176 47 271 325 214 179 210 147 118 120 110 147 130 173 189 185 186 198 199 202 208 217 214 213 219 228 233 231 234 239 242 243 245 248 254 260 267 274 276 276 277 280 285
157 195 266 167 195 174 162 231 207 145 106 103 115 131 188 188 196 203 207 218 225 230 229 223 227 234 236 234 233 237 242 245 247 248 253 259 264 268 272 272 271 273 276 282
165 131 187 297 317 144 253 49 351 180 157 149 149 144 234 192 197 209 214 219 227 236 236 233 238 240 235 236 240 244 249 251 249 251 256 264 271 273 272 269 268 270 274 282
285 244 300 21 290 328 108 201 314 84 171 160 171 186 141 161 173 181 191 201 209 219 232 238 237 236 236 240 246 251 250 251 254 259 267 274 275 274 271 266 267 271 276 281
11 55 261 8 65 159 272 292 357 99 137 144 122 124 130 133 141 157 177 193 206 218 226 233 237 241 245 250 254 253 252 255 261 268 272 275 275 274 272 270 270 273 277 281
166 221 319 38 91 52 65 37 71 108 131 142 126 124 113 103 102 103 108 139 203 228 237 242 247 250 251 250 250 250 253 258 264 270 276 278 279 277 274 272 274 275 278 279
113 347 95 43 72 51 84 103 107 125 124 119 117 115 111 104 101 95 84 70 38 325 291 275 264 262 261 256 253 253 258 267 273 277 280 281 281 278 276 277 277 275 275 275
122 103 131 78 85 94 96 100 106 106 105 104 108 107 104 101 94 80 37 343 323 316 309 303 288 278 269 264 261 266 271 274 278 282 283 284 284 283 281 279 276 276 275 271
153 87 91 102 111 107 106 102 101 102 102 98 89 84 78 60 20 348 334 320 311 301 294 289 283 280 279 276 274 276 278 280 282 282 282 282 283 283 282 281 277 275 271 270
111 70 109 127 130 126 116 100 93 83 68 54 47 35 19 0 344 328 314 305 302 301 297 292 288 285 281 277 277 277 279 281 281 282 282 283 283 283 283 280 276 274 270 266
85 104 105 131 122 125 121 106 83 60 46 32 11 348 330 322 318 312 308 305 302 300 299 297 295 295 291 285 283 284 286 285 284 284 284 283 282 282 280 277 276 274 270 265
77 73 121 126 142 142 132 109 92 33 6 346 336 329 324 326 325 317 310 312 316 317 315 308 305 309 295 293 292 291 289 288 286 284 284 283 280 278 276 275 274 272 266 259
132 116 102 119 121 121 110 64 6 336 327 317 320 331 330 325 325 324 321 319 318 317 315 310 307 302 297 294 293 291 291 290 289 287 285 282 279 277 275 274 271 268 266 261
119 129 143 126 121 109 329 323 330 352 336 331 331 326 325 323 324 321 315 312 312 311 310 306 305 303 302 301 299 298 295 293 291 288 286 284 280 276 274 272 270 267 265 263
84 102 105 110 107 105 77 24 4 353 341 333 327 323 320 319 316 316 313 312 311 308 309 309 310 311 312 311 309 307 303 301 299 295 290 286 283 278 273 270 268 265 262 259
115 107 101 96 89 81 75 45 350 331 325 320 318 318 318 319 315 314 314 319 323 325 328 329 328 325 324 321 317 314 310 306 302 297 292 288 283 277 272 269 266 263 260 255
112 101 104 105 91 28 351 337 330 325 322 320 319 319 318 317 310 312 318 325 332 335 337 336 334 333 330 327 324 320 314 309 303 298 292 287 282 278 273 268 264 261 257 252
112 99 71 32 8 355 342 332 328 324 319 315 313 313 313 315 314 319 325 330 337 339 336 331 327 325 323 321 318 315 310 305 300 295 291 285 280 275 270 267 264 259 254 250
66 40 17 359 344 337 329 325 320 315 314 313 310 308 308 313 313 317 326 323 325 323 322 320 318 318 318 317 315 311 307 303 298 293 289 285 279 275 271 267 259 254 249 247
4 351 343 337 330 326 322 319 317 316 318 316 313 311 312 315 319 316 318 319 319 317 316 316 315 315 314 313 311 308 306 303 299 294 289 284 279 274 269 263 257 251 248 247
338 331 326 324 322 320 319 321 321 320 320 319 317 315 314 311 314 316 316 316 314 311 312 313 312 312 311 310 308 305 302 299 296 293 288 283 277 271 264 259 254 251 246 240
324 323 324 324 325 326 326 326 328 320 316 315 319 320 321 320 317 315 315 314 313 312 311 312 311 310 308 307 305 302 299 296 292 288 284 280 277 271 266 259 253 245 239 243
328 331 331 329 329 330 331 331 334 335 329 323 325 322 318 317 316 314 311 310 311 313 316 317 315 312 311 309 307 305 301 298 293 288 283 279 273 267 261 256 250 242 239 244
327 324 324 327 327 330 332 331 331 334 334 329 326 327 323 321 320 320 321 323 324 325 325 324 324 322 319 316 314 311 307 302 297 291 285 279 273 266 261 254 243 235 237 241
Wind_Speed_850mb
2 5 7 6 13 21 7 6 6 6 6 10 11 16 28 43 48 47 48 60 65 61 55 51 42 34 38 42 42 39 36 33 31 29 26 23 24 24 23 21 18 19 20 22
2 5 5 8 13 18 17 2 5 1 7 9 19 37 38 45 51 52 54 64 58 55 55 50 42 44 45 44 43 40 39 36 34 32 29 28 29 27 24 21 20 22 23 24
5 5 8 7 12 16 5 3 6 6 2 8 4 10 34 43 49 51 55 58 59 61 55 50 51 49 48 47 45 42 41 38 37 34 32 33 31 30 27 24 23 25 27 29
3 2 2 7 5 8 10 10 7 9 6 8 8 7 14 33 46 43 49 53 55 53 52 51 50 49 51 48 43 41 41 39 40 37 37 35 33 31 29 28 28 30 32 32
6 4 8 7 7 10 9 7 9 11 8 8 12 8 8 24 34 38 37 40 45 50 48 51 52 51 54 48 44 45 43 42 41 41 39 37 35 34 33 33 34 35 35 35
6 8 8 3 1 8 3 3 15 12 17 16 18 4 5 23 25 32 36 35 40 42 44 50 53 52 50 48 46 45 43 42 42 41 41 39 37 38 38 39 40 40 38 36
5 3 6 5 4 6 8 4 12 6 24 30 7 2 16 17 20 20 20 22 25 28 33 36 38 40 44 45 46 40 42 43 42 41 40 40 43 45 44 46 45 43 41 39
1 3 8 9 5 2 3 4 2 18 22 21 19 25 22 20 18 14 11 11 13 18 24 27 31 35 39 43 40 41 43 41 40 41 43 47 49 50 50 50 48 45 44 42
5 6 2 8 9 5 4 4 6 15 21 29 30 23 17 16 14 11 7 4 5 10 15 20 25 29 32 33 35 38 38 39 42 45 49 51 53 53 54 54 52 48 47 46
4 6 4 10 16 11 13 22 19 25 24 21 29 23 24 21 18 13 10 6 3 4 6 9 12 17 21 27 33 39 39 41 45 50 52 53 54 56 57 56 54 53 51 49
5 5 9 14 20 26 35 35 35 34 34 33 29 27 21 17 12 7 4 6 9 13 15 16 19 23 28 32 38 42 45 49 52 55 57 58 59 59 60 59 57 55 53 52
6 5 6 10 22 28 35 38 36 34 32 26 20 17 12 9 8 9 11 14 16 19 22 24 29 33 36 41 48 52 56 58 59 61 62 64 64 62 62 61 59 59 56 54
7 10 19 25 24 24 24 25 24 21 19 15 13 11 9 7 9 13 19 24 30 33 35 37 39 41 41 48 53 58 62 62 63 65 66 67 68 67 66 61 61 60 56 54
18 18 16 19 15 19 17 15 12 12 13 12 11 11 12 15 19 23 26 28 30 33 34 36 39 39 41 46 52 56 59 62 65 68 70 73 74 72 68 66 63 59 54 51
10 16 18 17 20 16 13 11 8 8 12 13 15 16 18 18 18 19 23 27 30 32 33 37 40 37 43 48 53 56 61 65 68 72 74 75 75 73 70 65 63 59 55 53
5 9 17 18 19 16 11 6 10 17 16 14 14 14 15 19 22 25 31 36 40 40 41 46 48 48 52 56 59 62 64 67 69 71 72 72 73 71 68 65 62 59 58 52
7 9 11 11 8 4 5 12 10 6 8 11 13 16 21 26 30 33 38 43 47 51 51 55 59 58 59 60 61 62 63 64 65 67 67 66 65 67 64 61 59 57 54 50
15 18 17 11 5 4 4 5 7 8 11 15 21 28 34 39 45 46 49 51 51 52 50 50 50 50 52 54 56 57 59 60 60 60 59 61 59 58 59 59 57 55 52 47
23 23 19 15 10 8 7 5 7 15 22 29 34 37 41 43 49 51 51 46 41 42 43 44 45 47 50 52 54 56 58 59 59 58 57 57 56 55 55 55 54 52 50 47
18 17 18 15 9 6 11 16 21 27 33 39 43 47 48 44 44 38 33 35 35 35 36 41 45 49 53 55 57 59 58 58 58 59 57 56 55 52 51 51 51 51 49 46
24 17 12 12 15 18 23 28 33 35 38 45 50 50 46 33 28 29 28 30 30 34 39 43 47 49 52 54 56 59 59 59 60 59 57 55 53 52 51 50 50 48 46 44
16 15 16 19 22 28 33 39 45 49 48 46 42 40 33 28 24 23 25 30 33 40 44 48 53 56 58 60 61 61 60 59 58 58 59 56 55 53 51 48 47 45 44 42
18 23 29 34 37 40 42 44 45 46 42 38 33 30 29 29 30 35 37 38 47 52 55 57 60 63 65 66 66 66 65 63 61 60 58 56 53 51 49 46 44 43 42 39
27 32 36 39 42 42 41 37 36 37 34 31 29 30 32 35 32 34 44 52 58 62 64 65 67 68 70 69 68 67 66 65 63 61 57 55 52 49 47 44 42 41 39 32
31 34 36 36 36 36 36 36 33 32 28 25 27 31 36 42 47 53 59 63 66 69 70 68 69 71 71 72 69 67 65 63 61 59 55 50 47 44 42 40 39 37 32 29
31 33 35 35 35 37 38 39 36 36 39 39 34 36 41 46 52 57 62 65 67 69 71 72 72 72 71 71 69 66 64 61 57 54 50 47 45 43 42 42 41 40 33 31
29 27 24 24 26 28 30 34 37 39 41 46 51 52 57 60 63 66 70 74 77 78 78 75 73 72 71 68 66 63 60 58 56 53 51 49 47 45 43 41 39 35 34 32
Wind_Direction_850mb
129 49 19 299 199 192 246 204 112 15 84 162 177 148 140 144 150 156 166 172 173 174 183 188 194 195 181 181 190 207 223 235 235 237 240 248 258 263 268 276 287 297 303 309
79 307 41 323 311 192 201 219 95 307 103 21 155 146 148 165 167 171 177 182 187 192 191 193 199 192 194 202 214 226 234 234 239 240 242 249 258 264 268 274 288 292 297 299
136 313 14 295 231 202 157 241 119 148 79 115 67 164 171 178 179 177 184 191 194 194 200 206 203 203 211 220 230 232 235 237 240 242 246 251 259 264 269 276 283 286 289 287
129 176 47 271 325 214 179 210 147 118 120 110 147 130 173 189 185 186 198 199 202 208 217 214 213 219 228 233 231 234 239 242 243 245 248 254 260 267 274 276 276 277 280 285
157 195 266 167 195 174 162 231 207 145 106 103 115 131 188 188 196 203 207 218 225 230 229 223 227 234 236 234 233 237 242 245 247 248 253 259 264 268 272 272 271 273 276 282
165 131 187 297 317 144 253 49 351 180 157 149 149 144 234 192 197 209 214 219 227 236 236 233 238 240 235 236 240 244 249 251 249 251 256 264 271 273 272 269 268 270 274 282
285 244 300 21 290 328 108 201 314 84 171 160 171 186 141 161 173 181 191 201 209 219 232 238 237 236 236 240 246 251 250 251 254 259 267 274 275 274 271 266 267 271 276 281
11 55 261 8 65 159 272 292 357 99 137 144 122 124 130 133 141 157 177 193 206 218 226 233 237 241 245 250 254 253 252 255 261 268 272 275 275 274 272 270 270 273 277 281
166 221 319 38 91 52 65 37 71 108 131 142 126 124 113 103 102 103 108 139 203 228 237 242 247 250 251 250 250 250 253 258 264 270 276 278 279 277 274 272 274 275 278 279
113 347 95 43 72 51 84 103 107 125 124 119 117 115 111 104 101 95 84 70 38 325 291 275 264 262 261 256 253 253 258 267 273 277 280 281 281 278 276 277 277 275 275 275
122 103 131 78 85 94 96 100 106 106 105 104 108 107 104 101 94 80 37 343 323 316 309 303 288 278 269 264 261 266 271 274 278 282 283 284 284 283 281 279 276 276 275 271
153 87 91 102 111 107 106 102 101 102 102 98 89 84 78 60 20 348 334 320 311 301 294 289 283 280 279 276 274 276 278 280 282 282 282 282 283 283 282 281 277 275 271 270
111 70 109 127 130 126 116 100 93 83 68 54 47 35 19 0 344 328 314 305 302 301 297 292 288 285 281 277 277 277 279 281 281 282 282 283 283 283 283 280 276 274 270 266
85 104 105 131 122 125 121 106 83 60 46 32 11 348 330 322 318 312 308 305 302 300 299 297 295 295 291 285 283 284 286 285 284 284 284 283 282 282 280 277 276 274 270 265
77 73 121 126 142 142 132 109 92 33 6 346 336 329 324 326 325 317 310 312 316 317 315 308 305 309 295 293 292 291 289 288 286 284 284 283 280 278 276 275 274 272 266 259
132 116 102 119 121 121 110 64 6 336 327 317 320 331 330 325 325 324 321 319 318 317 315 310 307 302 297 294 293 291 291 290 289 287 285 282 279 277 275 274 271 268 266 261
119 129 143 126 121 109 329 323 330 352 336 331 331 326 325 323 324 321 315 312 312 311 310 306 305 303 302 301 299 298 295 293 291 288 286 284 280 276 274 272 270 267 265 263
84 102 105 110 107 105 77 24 4 353 341 333 327 323 320 319 316 316 313 312 311 308 309 309 310 311 312 311 309 307 303 301 299 295 290 286 283 278 273 270 268 265 262 259
115 107 101 96 89 81 75 45 350 331 325 320 318 318 318 319 315 314 314 319 323 325 328 329 328 325 324 321 317 314 310 306 302 297 292 288 283 277 272 269 266 263 260 255
112 101 104 105 91 28 351 337 330 325 322 320 319 319 318 317 310 312 318 325 332 335 337 336 334 333 330 327 324 320 314 309 303 298 292 287 282 278 273 268 264 261 257 252
112 99 71 32 8 355 342 332 328 324 319 315 313 313 313 315 314 319 325 330 337 339 336 331 327 325 323 321 318 315 310 305 300 295 291 285 280 275 270 267 264 259 254 250
66 40 17 359 344 337 329 325 320 315 314 313 310 308 308 313 313 317 326 323 325 323 322 320 318 318 318 317 315 311 307 303 298 293 289 285 279 275 271 267 259 254 249 247
4 351 343 337 330 326 322 319 317 316 318 316 313 311 312 315 319 316 318 319 319 317 316 316 315 315 314 313 311 308 306 303 299 294 289 284 279 274 269 263 257 251 248 247
338 331 326 324 322 320 319 321 321 320 320 319 317 315 314 311 314 316 316 316 314 311 312 313 312 312 311 310 308 305 302 299 296 293 288 283 277 271 264 259 254 251 246 240
324 323 324 324 325 326 326 326 328 320 316 315 319 320 321 320 317 315 315 314 313 312 311 312 311 310 308 307 305 302 299 296 292 288 284 280 277 271 266 259 253 245 239 243
328 331 331 329 329 330 331 331 334 335 329 323 325 322 318 317 316 314 311 310 311 313 316 317 315 312 311 309 307 305 301 298 293 288 283 279 273 267 261 256 250 242 239 244
327 324 324 327 327 330 332 331 331 334 334 329 326 327 323 321 320 320 321 323 324 325 325 324 324 322 319 316 314 311 307 302 297 291 285 279 273 266 261 254 243 235 237 241